| time (UTC) | temp F | wind direction | speed MPH | gust MPH | rain 1hr in | rain 24hr in | rain mn in | humidity % | barometer mb |
| 20260504034500 | 41 | 229 | 0.0 | 1.0 | 0.00 | 0.00 | 0.00 | 78 | |
| 20260504034000 | 40 | 1 | 1.0 | 2.0 | 0.00 | 0.00 | 0.00 | 78 | |
| 20260504033500 | 40 | 139 | 3.0 | 3.0 | 0.00 | 0.00 | 0.00 | 79 | |
| 20260504033000 | 40 | 159 | 2.0 | 3.0 | 0.00 | 0.00 | 0.00 | 80 | |
| 20260504032500 | 39 | 141 | 2.0 | 3.0 | 0.00 | 0.00 | 0.00 | 80 | |
| 20260504032000 | 40 | 205 | 2.0 | 2.0 | 0.00 | 0.00 | 0.00 | 79 | |
| 20260504031500 | 39 | 176 | 3.0 | 3.0 | 0.00 | 0.00 | 0.00 | 80 | |
| 20260504031000 | 39 | 167 | 3.0 | 3.0 | 0.00 | 0.00 | 0.00 | 80 | |
| 20260504030500 | 39 | 354 | 1.0 | 1.0 | 0.00 | 0.00 | 0.00 | 80 | |
| 20260504030000 | 39 | 179 | 1.0 | 1.0 | 0.00 | 0.00 | 0.00 | 79 | |
| 20260504025500 | 39 | 266 | 0.0 | 2.0 | 0.00 | 0.00 | 0.00 | 79 | |
| 20260504025000 | 39 | 190 | 0.0 | 1.0 | 0.00 | 0.00 | 0.00 | 78 | |
| 20260504024500 | 39 | 233 | 1.0 | 2.0 | 0.00 | 0.00 | 0.00 | 77 | |
| 20260504024000 | 40 | 224 | 0.0 | 1.0 | 0.00 | 0.00 | 0.00 | 77 | |
| 20260504023500 | 40 | 210 | 3.0 | 3.0 | 0.00 | 0.00 | 0.00 | 77 | |
| 20260504023000 | 40 | 246 | 0.0 | 1.0 | 0.00 | 0.00 | 0.00 | 75 | |
| 20260504022500 | 40 | 149 | 0.0 | 1.0 | 0.00 | 0.00 | 0.00 | 75 | |
| 20260504022000 | 41 | 152 | 2.0 | 2.0 | 0.00 | 0.00 | 0.00 | 74 | |
| 20260504021500 | 41 | 199 | 2.0 | 2.0 | 0.00 | 0.00 | 0.00 | 74 | |
| 20260504021000 | 40 | 132 | 2.0 | 3.0 | 0.00 | 0.00 | 0.00 | 75 | |
| 20260504020500 | 40 | 168 | 2.0 | 2.0 | 0.00 | 0.00 | 0.00 | 74 | |
| 20260504020000 | 40 | 153 | 0.0 | 1.0 | 0.00 | 0.00 | 0.00 | 74 | |
| 20260504015500 | 40 | 206 | 1.0 | 2.0 | 0.00 | 0.00 | 0.00 | 74 | |
| 20260504015000 | 41 | 268 | 0.0 | 1.0 | 0.00 | 0.00 | 0.00 | 73 | |
| 20260504014500 | 40 | 119 | 3.0 | 5.0 | 0.00 | 0.00 | 0.00 | 74 | |
| 20260504014000 | 40 | 154 | 2.0 | 4.0 | 0.00 | 0.00 | 0.00 | 74 | |
| 20260504013500 | 41 | 160 | 3.0 | 3.0 | 0.00 | 0.00 | 0.00 | 73 | |
| 20260504013000 | 40 | 104 | 4.0 | 6.0 | 0.00 | 0.00 | 0.00 | 73 | |
| 20260504012500 | 40 | 185 | 2.0 | 2.0 | 0.00 | 0.00 | 0.00 | 73 | |
| 20260504012000 | 40 | 94 | 1.0 | 2.0 | 0.00 | 0.00 | 0.00 | 74 | |
| 20260504011500 | 40 | 165 | 2.0 | 2.0 | 0.00 | 0.00 | 0.00 | 73 | |
| 20260504011000 | 40 | 229 | 0.0 | 0.0 | 0.00 | 0.00 | 0.00 | 73 | |
| 20260504010500 | 40 | 122 | 0.0 | 1.0 | 0.00 | 0.00 | 0.00 | 74 | |
| 20260504010000 | 40 | 164 | 2.0 | 2.0 | 0.00 | 0.00 | 0.00 | 74 | |
| 20260504005500 | 40 | 151 | 3.0 | 4.0 | 0.00 | 0.00 | 0.00 | 75 | |
| 20260504005000 | 40 | 133 | 3.0 | 4.0 | 0.00 | 0.00 | 0.00 | 74 | |
| 20260504004500 | 40 | 113 | 5.0 | 6.0 | 0.00 | 0.00 | 0.00 | 76 | |
| 20260504004000 | 40 | 115 | 4.0 | 5.0 | 0.00 | 0.00 | 0.00 | 76 | |
| 20260504003500 | 40 | 138 | 3.0 | 3.0 | 0.00 | 0.00 | 0.00 | 76 | |
| 20260504003000 | 40 | 136 | 3.0 | 3.0 | 0.00 | 0.00 | 0.00 | 75 | |
| 20260504002500 | 40 | 116 | 4.0 | 5.0 | 0.00 | 0.00 | 0.00 | 74 | |
| 20260504002000 | 41 | 124 | 2.0 | 4.0 | 0.00 | 0.00 | 0.00 | 72 | |
| 20260504001500 | 41 | 111 | 2.0 | 4.0 | 0.00 | 0.00 | 0.00 | 72 | |
| 20260504001000 | 41 | 15 | 0.0 | 4.0 | 0.00 | 0.00 | 0.00 | 72 | |
| 20260504000500 | 40 | 263 | 0.0 | 1.0 | 0.00 | 0.00 | 0.00 | 73 | |
| 20260504000000 | 40 | 8 | 2.0 | 2.0 | 0.00 | 0.00 | 0.00 | 73 | |
| 20260503235500 | 41 | 225 | 1.0 | 2.0 | 0.00 | 0.00 | 0.00 | 72 | |
| 20260503235000 | 41 | 102 | 3.0 | 4.0 | 0.00 | 0.00 | 0.00 | 70 | |
| 20260503234500 | 41 | 296 | 2.0 | 2.0 | 0.00 | 0.00 | 0.00 | 70 | |
| 20260503234000 | 42 | 39 | 2.0 | 2.0 | 0.00 | 0.00 | 0.00 | 69 | |
| 20260503233500 | 42 | 309 | 2.0 | 3.0 | 0.00 | 0.00 | 0.00 | 69 | |
| 20260503233000 | 42 | 115 | 5.0 | 5.0 | 0.00 | 0.00 | 0.00 | 69 | |
| 20260503232500 | 42 | 359 | 3.0 | 4.0 | 0.00 | 0.00 | 0.00 | 69 | |
| 20260503232000 | 42 | 7 | 5.0 | 8.0 | 0.00 | 0.00 | 0.00 | 70 | |
| 20260503231500 | 42 | 11 | 2.0 | 4.0 | 0.00 | 0.00 | 0.00 | 69 | |
| 20260503231000 | 42 | 93 | 3.0 | 7.0 | 0.00 | 0.00 | 0.00 | 69 | |
| 20260503230500 | 42 | 138 | 2.0 | 5.0 | 0.00 | 0.00 | 0.00 | 68 | |
| 20260503230000 | 42 | 232 | 0.0 | 4.0 | 0.00 | 0.00 | 0.00 | 69 | |
| 20260503225500 | 42 | 105 | 3.0 | 4.0 | 0.00 | 0.00 | 0.00 | 69 | |
| 20260503225000 | 42 | 101 | 4.0 | 4.0 | 0.00 | 0.00 | 0.00 | 69 | |
| 20260503224500 | 41 | 8 | 2.0 | 3.0 | 0.00 | 0.00 | 0.00 | 70 | |
| 20260503224000 | 42 | 20 | 2.0 | 2.0 | 0.00 | 0.00 | 0.00 | 69 | |
| 20260503223500 | 42 | 352 | 2.0 | 3.0 | 0.00 | 0.00 | 0.00 | 69 | |
| 20260503223000 | 42 | 93 | 2.0 | 3.0 | 0.00 | 0.00 | 0.00 | 69 | |
| 20260503222500 | 42 | 1 | 4.0 | 4.0 | 0.00 | 0.00 | 0.00 | 68 | |
| 20260503222000 | 42 | 0 | 2.0 | 2.0 | 0.00 | 0.00 | 0.00 | 68 | |
| 20260503221500 | 42 | 28 | 2.0 | 3.0 | 0.00 | 0.00 | 0.00 | 67 | |
| 20260503221000 | 43 | 106 | 2.0 | 4.0 | 0.00 | 0.00 | 0.00 | 67 | |
| 20260503220500 | 43 | 22 | 2.0 | 4.0 | 0.00 | 0.00 | 0.00 | 67 | |
| 20260503220001 | 43 | 94 | 4.0 | 4.0 | 0.00 | 0.00 | 0.00 | 67 | |
| 20260503215500 | 43 | 358 | 2.0 | 4.0 | 0.00 | 0.00 | 0.00 | 66 | |
| 20260503215000 | 42 | 130 | 3.0 | 3.0 | 0.00 | 0.00 | 0.00 | 67 | |
| 20260503214500 | 43 | 13 | 3.0 | 3.0 | 0.00 | 0.00 | 0.00 | 66 | |
| 20260503214000 | 43 | 118 | 3.0 | 3.0 | 0.00 | 0.00 | 0.00 | 66 | |
| 20260503213500 | 43 | 106 | 4.0 | 4.0 | 0.00 | 0.00 | 0.00 | 65 | |
| 20260503213000 | 43 | 143 | 3.0 | 3.0 | 0.00 | 0.00 | 0.00 | 66 | |
| 20260503212501 | 43 | 25 | 4.0 | 4.0 | 0.00 | 0.00 | 0.00 | 66 | |
| 20260503212001 | 43 | 356 | 3.0 | 3.0 | 0.00 | 0.00 | 0.00 | 66 | |
| 20260503211500 | 44 | 150 | 4.0 | 4.0 | 0.00 | 0.00 | 0.00 | 66 | |
| 20260503211000 | 44 | 73 | 4.0 | 8.0 | 0.00 | 0.00 | 0.00 | 66 | |
| 20260503210504 | 44 | 33 | 2.0 | 3.0 | 0.00 | 0.00 | 0.00 | 66 | |
| 20260503210000 | 44 | 1 | 2.0 | 5.0 | 0.00 | 0.43 | 0.43 | 67 | |
| 20260503205502 | 44 | 9 | 4.0 | 4.0 | 0.00 | 0.43 | 0.43 | 67 | |
| 20260503205001 | 44 | 202 | 2.0 | 8.0 | 0.00 | 0.43 | 0.43 | 67 | |
| 20260503204501 | 44 | 4 | 8.0 | 8.0 | 0.00 | 0.43 | 0.43 | 67 | |
| 20260503204001 | 44 | 88 | 2.0 | 5.0 | 0.00 | 0.43 | 0.43 | 68 | |
| 20260503203511 | 44 | 356 | 5.0 | 7.0 | 0.00 | 0.43 | 0.43 | 68 | |
| 20260503203005 | 44 | 69 | 6.0 | 8.0 | 0.00 | 0.43 | 0.43 | 68 | |
| 20260503202502 | 44 | 7 | 7.0 | 9.0 | 0.00 | 0.43 | 0.43 | 70 | |
| 20260503202000 | 44 | 0 | 6.0 | 6.0 | 0.00 | 0.43 | 0.43 | 69 | |
| 20260503201500 | 44 | 0 | 4.0 | 7.0 | 0.00 | 0.43 | 0.43 | 69 | |
| 20260503201001 | 44 | 54 | 3.0 | 6.0 | 0.00 | 0.43 | 0.43 | 69 | |
| 20260503200500 | 44 | 9 | 4.0 | 8.0 | 0.00 | 0.43 | 0.43 | 69 | |
| 20260503200000 | 44 | 8 | 7.0 | 11.0 | 0.00 | 0.43 | 0.43 | 69 | |
| 20260503195500 | 44 | 115 | 2.0 | 6.0 | 0.00 | 0.43 | 0.43 | 69 | |
| 20260503195001 | 44 | 95 | 6.0 | 10.0 | 0.00 | 0.43 | 0.43 | 69 | |
| 20260503194531 | 45 | 108 | 3.0 | 4.0 | 0.00 | 0.43 | 0.43 | 68 | |
| 20260503194000 | 45 | 356 | 7.0 | 10.0 | 0.00 | 0.43 | 0.43 | 67 | |
| 20260503193501 | 45 | 31 | 13.0 | 18.0 | 0.00 | 0.43 | 0.43 | 68 | |
| 20260503193001 | 45 | 7 | 8.0 | 11.0 | 0.00 | 0.43 | 0.43 | 69 | |
| 20260503192501 | 45 | 63 | 4.0 | 9.0 | 0.00 | 0.43 | 0.43 | 69 | |
| 20260503192001 | 45 | 48 | 6.0 | 9.0 | 0.00 | 0.43 | 0.43 | 69 | |
| 20260503191500 | 45 | 18 | 7.0 | 10.0 | 0.00 | 0.43 | 0.43 | 69 | |
| 20260503191001 | 46 | 22 | 8.0 | 15.0 | 0.00 | 0.43 | 0.43 | 68 | |
| 20260503190501 | 46 | 41 | 8.0 | 10.0 | 0.00 | 0.43 | 0.43 | 70 | |
| 20260503190001 | 46 | 7 | 6.0 | 8.0 | 0.00 | 0.43 | 0.43 | 70 | |
| 20260503185501 | 46 | 6 | 9.0 | 12.0 | 0.00 | 0.43 | 0.43 | 69 | |
| 20260503185001 | 46 | 17 | 12.0 | 17.0 | 0.00 | 0.43 | 0.43 | 70 | |
| 20260503184501 | 46 | 23 | 10.0 | 10.0 | 0.00 | 0.43 | 0.43 | 72 | |
| 20260503184000 | 46 | 82 | 5.0 | 9.0 | 0.00 | 0.43 | 0.43 | 72 | |
| 20260503183500 | 46 | 7 | 11.0 | 13.0 | 0.00 | 0.43 | 0.43 | 72 | |
| 20260503183001 | 46 | 18 | 8.0 | 11.0 | 0.00 | 0.43 | 0.43 | 72 | |
| 20260503182500 | 47 | 31 | 6.0 | 9.0 | 0.00 | 0.43 | 0.43 | 71 | |
| 20260503182000 | 47 | 16 | 7.0 | 8.0 | 0.00 | 0.43 | 0.43 | 71 | |
| 20260503181500 | 46 | 2 | 10.0 | 15.0 | 0.00 | 0.43 | 0.43 | 74 | |
| 20260503180501 | 46 | 18 | 3.0 | 8.0 | 0.00 | 0.43 | 0.43 | 76 | |
| 20260503180000 | 46 | 359 | 8.0 | 14.0 | 0.00 | 0.43 | 0.43 | 77 | |
| 20260503175501 | 46 | 2 | 7.0 | 8.0 | 0.00 | 0.43 | 0.43 | 77 | |
| 20260503175001 | 46 | 20 | 8.0 | 10.0 | 0.00 | 0.43 | 0.43 | 78 | |
| 20260503174501 | 46 | 340 | 5.0 | 8.0 | 0.00 | 0.43 | 0.43 | 79 | |
| 20260503174001 | 46 | 114 | 4.0 | 6.0 | 0.00 | 0.43 | 0.43 | 78 | |
| 20260503173502 | 46 | 69 | 2.0 | 6.0 | 0.00 | 0.42 | 0.42 | 78 | |
| 20260503173001 | 46 | 11 | 4.0 | 6.0 | 0.00 | 0.42 | 0.42 | 79 | |
| 20260503172500 | 47 | 123 | 2.0 | 6.0 | 0.00 | 0.42 | 0.42 | 77 | |
| 20260503172001 | 47 | 35 | 7.0 | 11.0 | 0.00 | 0.42 | 0.42 | 77 | |
| 20260503171500 | 47 | 21 | 7.0 | 9.0 | 0.00 | 0.42 | 0.42 | 76 | |
| 20260503171000 | 47 | 25 | 11.0 | 16.0 | 0.00 | 0.42 | 0.42 | 76 | |
| 20260503170500 | 47 | 335 | 4.0 | 10.0 | 0.00 | 0.42 | 0.42 | 76 | |
| 20260503151000 | 46 | 36 | 7.0 | 10.0 | 0.00 | 0.42 | 0.42 | 85 | |
| 20260503150500 | 46 | 49 | 6.0 | 12.0 | 0.00 | 0.42 | 0.42 | 85 | |
| 20260503131000 | 46 | 10 | 7.0 | 10.0 | 0.00 | 0.39 | 0.39 | 88 | |
| 20260503130500 | 46 | 16 | 7.0 | 8.0 | 0.00 | 0.39 | 0.39 | 90 | |
| 20260503110500 | 44 | 356 | 7.0 | 8.0 | 0.00 | 0.33 | 0.33 | 93 | |
| 20260503090500 | 42 | 351 | 5.0 | 6.0 | 0.00 | 0.28 | 0.28 | 94 | |
| 20260503081500 | 42 | 20 | 3.0 | 3.0 | 0.01 | 0.25 | 0.25 | 94 | |
| 20260503081000 | 42 | 17 | 4.0 | 6.0 | 0.00 | 0.25 | 0.25 | 94 | |
| 20260503080500 | 42 | 0 | 10.0 | 11.0 | 0.00 | 0.25 | 0.25 | 94 | |
| 20260503072500 | 42 | 16 | 0.0 | 3.0 | 0.01 | 0.23 | 0.23 | 94 | |
| 20260503072000 | 42 | 127 | 3.0 | 3.0 | 0.01 | 0.23 | 0.23 | 94 | |
| 20260503071500 | 42 | 10 | 3.0 | 4.0 | 0.00 | 0.22 | 0.22 | 94 | |
| 20260503071000 | 42 | 359 | 1.0 | 2.0 | 0.00 | 0.22 | 0.22 | 94 | |
| 20260503070500 | 42 | 310 | 0.0 | 4.0 | 0.00 | 0.22 | 0.22 | 95 | |
| 20260503055000 | 41 | 121 | 2.0 | 3.0 | 0.02 | 0.20 | 0.20 | 94 | |
| 20260503054500 | 41 | 4 | 4.0 | 5.0 | 0.02 | 0.20 | 0.20 | 94 | |
| 20260503054001 | 41 | 14 | 4.0 | 6.0 | 0.02 | 0.20 | 0.20 | 94 | |
| 20260503053500 | 41 | 99 | 5.0 | 10.0 | 0.02 | 0.20 | 0.20 | 94 | |
| 20260503053000 | 41 | 117 | 6.0 | 6.0 | 0.01 | 0.19 | 0.19 | 94 | |
| 20260503052500 | 41 | 18 | 3.0 | 4.0 | 0.01 | 0.19 | 0.19 | 94 | |
| 20260503052000 | 41 | 2 | 6.0 | 9.0 | 0.01 | 0.19 | 0.19 | 94 | |
| 20260503051500 | 41 | 106 | 6.0 | 7.0 | 0.01 | 0.19 | 0.19 | 94 | |
| 20260503051000 | 40 | 0 | 5.0 | 8.0 | 0.00 | 0.19 | 0.19 | 94 | |
| 20260503050500 | 41 | 4 | 4.0 | 8.0 | 0.00 | 0.19 | 0.19 | 94 | |
| 20260503050000 | 41 | 74 | 10.0 | 15.0 | 0.00 | 0.18 | 0.18 | 94 | |
| 20260503045500 | 41 | 350 | 6.0 | 9.0 | 0.04 | 0.18 | 0.18 | 95 | |
| 20260503045000 | 40 | 72 | 3.0 | 7.0 | 0.04 | 0.18 | 0.18 | 96 | |
| 20260503044500 | 40 | 56 | 3.0 | 5.0 | 0.04 | 0.17 | 0.17 | 96 | |
| 20260503044000 | 40 | 299 | 1.0 | 3.0 | 0.03 | 0.17 | 0.17 | 96 | |
| 20260503043500 | 40 | 197 | 1.0 | 2.0 | 0.03 | 0.17 | 0.17 | 96 | |
| 20260503043000 | 40 | 42 | 2.0 | 3.0 | 0.03 | 0.17 | 0.17 | 96 | |
| 20260503042500 | 40 | 0 | 4.0 | 5.0 | 0.03 | 0.17 | 0.17 | 96 | |
| 20260503042000 | 40 | 7 | 3.0 | 4.0 | 0.02 | 0.16 | 0.16 | 95 | |
| 20260503041500 | 40 | 329 | 4.0 | 4.0 | 0.02 | 0.15 | 0.15 | 95 | |
| 20260503041000 | 40 | 16 | 5.0 | 5.0 | 0.01 | 0.15 | 0.15 | 95 | |
| 20260503040500 | 40 | 6 | 3.0 | 4.0 | 0.00 | 0.14 | 0.14 | 95 | |
| 20260503040000 | 40 | 25 | 2.0 | 3.0 | 0.00 | 0.14 | 0.14 | 95 | |
| 20260503035500 | 40 | 44 | 2.0 | 2.0 | 0.04 | 0.13 | 0.13 | 95 | |
| 20260503035000 | 40 | 349 | 2.0 | 2.0 | 0.04 | 0.13 | 0.13 | 95 |